Plymouth, MA

12:33 PM EDT on June 23, 2017 (GMT -0400)
Plymouth Municipal

Weather History for KPYM - August, 2013

Change the Weather History Date:

Saturday, August 10, 2013

  Actual Average Record
Temperature  
Mean Temperature 75 °F -  
Max Temperature 84 °F 82 °F 102 °F (1949)
Min Temperature 64 °F 62 °F 47 °F (1964)
Cooling Degree Days 10    
Growing Degree Days 25 (Base 50)    
Moisture  
Dew Point 62 °F    
Average Humidity 66    
Maximum Humidity 94    
Minimum Humidity 42    
Precipitation  
Precipitation 0.00 in - - ()
Sea Level Pressure  
Sea Level Pressure 29.89 in    
Wind  
Wind Speed 8 mph (West)    
Max Wind Speed 16 mph    
Max Gust Speed 21 mph    
Visibility 9 miles    
Events      
Averages and records for this station are not official NWS values.
T = Trace of Precipitation, MM = Missing Value Source: NWS Daily Summary

Daily Weather History Graph

Daily Weather History Graph

Search for Another Location

Airport or City:

Trip Planner

Search our weather history database for the weather conditions in past years. The results will help you decide how hot, cold, wet, or windy it might be!

Date:

Astronomy

Aug. 10, 2013 Rise Set
Actual Time 5:45 AM EDT 7:49 PM EDT
Civil Twilight 5:15 AM EDT 8:20 PM EDT
Nautical Twilight 4:38 AM EDT 8:57 PM EDT
Astronomical Twilight 3:57 AM EDT 9:38 PM EDT
Moon 9:33 AM EDT (8/10) 9:24 PM EDT (8/10)
Length of Visible Light 15h 04m
Length of Day
14h 03m
Waxing Crescent, 14% of the Moon is Illuminated
Aug 10
Waxing Crescent
Aug 14
First Quarter
Aug 20
Full
Aug 28
Last Quarter
Sep 5
New

Hourly Weather History & Observations

Time (EDT) Temp. Heat Index Dew Point Humidity Pressure Visibility Wind Dir Wind Speed Gust Speed Precip Events Conditions
12:33 AM 73.4 °F - 71.6 °F 94% 29.81 in 4.0 mi SW 8.1 mph - N/A   Overcast
12:52 AM 73.0 °F - 71.1 °F 93% 29.81 in 4.0 mi SW 8.1 mph - N/A   Overcast
1:52 AM 73.0 °F - 71.1 °F 93% 29.81 in 5.0 mi SW 4.6 mph - N/A   Overcast
2:52 AM 73.0 °F - 71.1 °F 93% 29.82 in 5.0 mi SW 5.8 mph - N/A   Overcast
3:24 AM 73.4 °F - 69.8 °F 88% 29.82 in 6.0 mi WSW 5.8 mph - N/A   Scattered Clouds
3:52 AM 73.0 °F - 70.0 °F 90% 29.82 in 6.0 mi West 4.6 mph - N/A   Clear
4:52 AM 72.0 °F - 69.1 °F 91% 29.83 in 10.0 mi West 6.9 mph - N/A   Clear
5:52 AM 71.1 °F - 66.9 °F 87% 29.86 in 10.0 mi West 9.2 mph - N/A   Clear
6:52 AM 71.1 °F - 64.9 °F 81% 29.87 in 10.0 mi West 9.2 mph - N/A   Clear
7:52 AM 71.1 °F - 64.0 °F 78% 29.89 in 10.0 mi WNW 9.2 mph - N/A   Clear
8:52 AM 73.9 °F - 64.0 °F 71% 29.90 in 10.0 mi WNW 10.4 mph - N/A   Clear
9:52 AM 77.0 °F - 60.1 °F 56% 29.90 in 10.0 mi WNW 13.8 mph 18.4 mph N/A   Clear
10:52 AM 79.0 °F - 57.9 °F 48% 29.90 in 10.0 mi NW 10.4 mph - N/A   Clear
11:52 AM 81.0 °F 81.1 °F 57.9 °F 45% 29.90 in 10.0 mi WNW 8.1 mph - N/A   Clear
12:52 PM 82.0 °F 82.4 °F 60.1 °F 47% 29.90 in 10.0 mi West 10.4 mph - N/A   Clear
1:52 PM 84.0 °F 84.0 °F 60.1 °F 44% 29.90 in 10.0 mi West 16.1 mph 20.7 mph N/A   Clear
2:52 PM 82.0 °F 81.7 °F 57.0 °F 42% 29.89 in 10.0 mi WNW 12.7 mph - N/A   Clear
3:52 PM 84.0 °F 84.0 °F 60.1 °F 44% 29.90 in 10.0 mi West 9.2 mph - N/A   Partly Cloudy
4:52 PM 82.0 °F 82.0 °F 57.9 °F 44% 29.91 in 10.0 mi West 10.4 mph 18.4 mph N/A   Scattered Clouds
5:52 PM 81.0 °F 80.8 °F 55.9 °F 42% 29.91 in 10.0 mi West 11.5 mph 17.3 mph N/A   Clear
6:52 PM 79.0 °F - 54.0 °F 42% 29.93 in 10.0 mi West 10.4 mph - N/A   Clear
7:52 PM 73.9 °F - 55.0 °F 52% 29.94 in 10.0 mi West 9.2 mph - N/A   Clear
8:52 PM 72.0 °F - 54.0 °F 53% 29.97 in 10.0 mi Calm Calm - N/A   Clear
9:52 PM 66.9 °F - 55.9 °F 68% 29.99 in 10.0 mi West 3.5 mph - N/A   Clear
10:52 PM 66.0 °F - 54.0 °F 65% 29.99 in 10.0 mi WNW 5.8 mph - N/A   Clear
11:52 PM 64.9 °F - 53.1 °F 65% 30.01 in 10.0 mi WNW 4.6 mph - N/A   Clear